PTSHY SBPJ-SBAT

Flight info

Callsign PTSHY
Flight time N/A
Altitude 6000
Route 1010S04853W 1001S05107W 0957S05455W
Aircraft E110/L-SDG/C

Departure

Time 2026-04-28 00:17
Airport Brigadeiro Lysias Rodrigues Airport (SBPJ)

Arrival

Time N/A
Airport Piloto Osvaldo Marques Dias Airport (SBAT)
Time Latitude Longitude Altitude Speed Heading
2026-04-28 00:04 -10.29505 -48.35667 779 ft 0 kts 121°
2026-04-28 00:12 -10.29502 -48.35650 779 ft 8 kts 34°
2026-04-28 00:12 -10.29435 -48.35614 779 ft 12 kts 31°
2026-04-28 00:12 -10.29361 -48.35565 779 ft 10 kts 32°
2026-04-28 00:12 -10.29338 -48.35549 779 ft 5 kts 34°
2026-04-28 00:13 -10.29298 -48.35510 779 ft 9 kts 81°
2026-04-28 00:13 -10.29338 -48.35431 779 ft 15 kts 124°
2026-04-28 00:13 -10.29405 -48.35324 779 ft 19 kts 122°
2026-04-28 00:13 -10.29483 -48.35199 779 ft 21 kts 124°
2026-04-28 00:14 -10.29570 -48.35066 779 ft 23 kts 123°
2026-04-28 00:14 -10.29650 -48.34943 779 ft 16 kts 123°
2026-04-28 00:14 -10.29705 -48.34856 779 ft 13 kts 117°
2026-04-28 00:14 -10.29717 -48.34768 779 ft 12 kts 104°
2026-04-28 00:15 -10.29756 -48.34783 779 ft 11 kts 296°
2026-04-28 00:15 -10.29747 -48.34797 779 ft 0 kts 303°
2026-04-28 00:15 -10.29747 -48.34798 779 ft 0 kts 301°
2026-04-28 00:15 -10.29624 -48.34993 779 ft 71 kts 304°
2026-04-28 00:16 -10.29239 -48.35577 780 ft 118 kts 303°
2026-04-28 00:16 -10.28815 -48.36306 897 ft 122 kts 298°
2026-04-28 00:16 -10.28377 -48.37098 1080 ft 129 kts 299°
2026-04-28 00:16 -10.28170 -48.37997 1259 ft 133 kts 270°
2026-04-28 00:17 -10.28090 -48.38997 1300 ft 152 kts 276°
2026-04-28 00:17 -10.27914 -48.40116 1367 ft 164 kts 279°
2026-04-28 00:17 -10.27691 -48.41240 1515 ft 167 kts 281°
2026-04-28 00:17 -10.27439 -48.42398 1689 ft 167 kts 282°
2026-04-28 00:18 -10.27189 -48.43502 1854 ft 168 kts 282°
2026-04-28 00:18 -10.26919 -48.44674 2018 ft 168 kts 283°
2026-04-28 00:18 -10.26646 -48.45849 2173 ft 169 kts 283°
2026-04-28 00:18 -10.26369 -48.47033 2341 ft 169 kts 284°
2026-04-28 00:19 -10.26094 -48.48209 2507 ft 169 kts 284°
2026-04-28 00:19 -10.25821 -48.49377 2663 ft 169 kts 284°
2026-04-28 00:19 -10.25544 -48.50560 2825 ft 168 kts 284°
2026-04-28 00:19 -10.25270 -48.51728 2978 ft 168 kts 285°
2026-04-28 00:20 -10.24997 -48.52895 3134 ft 168 kts 285°
2026-04-28 00:20 -10.24720 -48.54073 3290 ft 168 kts 285°
2026-04-28 00:20 -10.24458 -48.55189 3431 ft 168 kts 285°
2026-04-28 00:20 -10.24176 -48.56391 3577 ft 168 kts 285°
2026-04-28 00:21 -10.23919 -48.57489 3706 ft 168 kts 285°
2026-04-28 00:21 -10.23640 -48.58678 3845 ft 168 kts 285°
2026-04-28 00:21 -10.23375 -48.59810 3977 ft 169 kts 285°
2026-04-28 00:21 -10.23098 -48.60991 4109 ft 169 kts 285°
2026-04-28 00:22 -10.22822 -48.62170 4238 ft 170 kts 284°
2026-04-28 00:22 -10.22559 -48.63298 4362 ft 170 kts 284°
2026-04-28 00:22 -10.22284 -48.64477 4488 ft 170 kts 285°
2026-04-28 00:22 -10.22010 -48.65648 4609 ft 171 kts 285°
2026-04-28 00:23 -10.21738 -48.66804 4721 ft 171 kts 285°
2026-04-28 00:23 -10.21454 -48.68010 4840 ft 172 kts 285°
2026-04-28 00:23 -10.21174 -48.69203 4953 ft 172 kts 285°
2026-04-28 00:23 -10.20896 -48.70386 5067 ft 173 kts 285°
2026-04-28 00:24 -10.20611 -48.71601 5186 ft 173 kts 284°
2026-04-28 00:24 -10.20332 -48.72787 5305 ft 173 kts 284°
2026-04-28 00:24 -10.20046 -48.74002 5422 ft 173 kts 284°
2026-04-28 00:24 -10.19767 -48.75191 5532 ft 173 kts 284°
2026-04-28 00:25 -10.19482 -48.76402 5640 ft 173 kts 285°
2026-04-28 00:25 -10.19204 -48.77583 5747 ft 173 kts 285°
2026-04-28 00:25 -10.18930 -48.78748 5852 ft 173 kts 285°
2026-04-28 00:25 -10.18646 -48.79954 5957 ft 173 kts 285°
2026-04-28 00:26 -10.18362 -48.81161 6059 ft 174 kts 285°
2026-04-28 00:26 -10.18078 -48.82367 6157 ft 174 kts 285°
2026-04-28 00:26 -10.17795 -48.83573 6253 ft 175 kts 285°
2026-04-28 00:26 -10.17522 -48.84739 6346 ft 175 kts 285°
2026-04-28 00:27 -10.17246 -48.85914 6431 ft 176 kts 284°
2026-04-28 00:27 -10.16953 -48.87162 6340 ft 189 kts 284°
2026-04-28 00:27 -10.16679 -48.88503 6000 ft 212 kts 276°
2026-04-28 00:27 -10.16569 -48.90030 5890 ft 213 kts 274°
2026-04-28 00:28 -10.16474 -48.91518 6015 ft 204 kts 274°
2026-04-28 00:28 -10.16386 -48.92905 6039 ft 203 kts 274°
2026-04-28 00:28 -10.16295 -48.94335 6025 ft 203 kts 275°
2026-04-28 00:28 -10.16205 -48.95752 6023 ft 203 kts 274°
2026-04-28 00:29 -10.16113 -48.97187 6023 ft 203 kts 275°
2026-04-28 00:29 -10.16020 -48.98633 6026 ft 203 kts 275°
2026-04-28 00:29 -10.15927 -49.00078 6028 ft 204 kts 274°
2026-04-28 00:29 -10.15834 -49.01531 6027 ft 204 kts 274°
2026-04-28 00:30 -10.15743 -49.02948 6029 ft 204 kts 274°
2026-04-28 00:30 -10.15650 -49.04396 6028 ft 204 kts 274°
2026-04-28 00:30 -10.15557 -49.05841 6031 ft 204 kts 274°
2026-04-28 00:30 -10.15464 -49.07298 6031 ft 204 kts 274°
2026-04-28 00:31 -10.15369 -49.08763 6028 ft 204 kts 274°
2026-04-28 00:31 -10.15277 -49.10198 6027 ft 204 kts 274°
2026-04-28 00:31 -10.15183 -49.11648 6027 ft 204 kts 274°
2026-04-28 00:31 -10.15090 -49.13093 6016 ft 204 kts 275°
2026-04-28 00:32 -10.14999 -49.14505 6019 ft 204 kts 275°
2026-04-28 00:32 -10.14905 -49.15967 6022 ft 204 kts 275°
2026-04-28 00:32 -10.14812 -49.17399 6026 ft 204 kts 275°
2026-04-28 00:32 -10.14717 -49.18864 6028 ft 204 kts 275°
2026-04-28 00:33 -10.14625 -49.20284 6025 ft 204 kts 274°
2026-04-28 00:33 -10.14531 -49.21733 6024 ft 205 kts 274°
2026-04-28 00:33 -10.14437 -49.23187 6025 ft 204 kts 274°
2026-04-28 00:33 -10.14343 -49.24645 6021 ft 204 kts 274°
2026-04-28 00:34 -10.14249 -49.26086 6025 ft 204 kts 274°
2026-04-28 00:34 -10.14159 -49.27477 6026 ft 204 kts 274°
2026-04-28 00:34 -10.14065 -49.28923 6021 ft 204 kts 274°
2026-04-28 00:34 -10.13977 -49.30279 6016 ft 204 kts 275°
2026-04-28 00:35 -10.13883 -49.31730 6023 ft 204 kts 274°
2026-04-28 00:35 -10.13789 -49.33168 6020 ft 204 kts 274°
2026-04-28 00:35 -10.13697 -49.34571 6020 ft 204 kts 275°
2026-04-28 00:35 -10.13603 -49.36021 6014 ft 203 kts 275°
2026-04-28 00:36 -10.13509 -49.37465 6020 ft 203 kts 275°
2026-04-28 00:36 -10.13415 -49.38900 6021 ft 203 kts 274°
2026-04-28 00:36 -10.13319 -49.40370 6020 ft 203 kts 275°
2026-04-28 00:36 -10.13224 -49.41821 6020 ft 203 kts 275°
2026-04-28 00:37 -10.13129 -49.43267 6024 ft 204 kts 275°
2026-04-28 00:37 -10.13035 -49.44701 6023 ft 204 kts 274°
2026-04-28 00:37 -10.12939 -49.46170 6024 ft 204 kts 274°
2026-04-28 00:37 -10.12845 -49.47605 6009 ft 205 kts 274°
2026-04-28 00:38 -10.12750 -49.49064 6016 ft 204 kts 274°
2026-04-28 00:38 -10.12654 -49.50523 6016 ft 204 kts 274°
2026-04-28 00:38 -10.12560 -49.51962 6010 ft 204 kts 274°
2026-04-28 00:38 -10.12464 -49.53417 6018 ft 204 kts 274°
2026-04-28 00:39 -10.12368 -49.54875 6018 ft 204 kts 274°
2026-04-28 00:39 -10.12274 -49.56311 6024 ft 203 kts 275°
2026-04-28 00:39 -10.12177 -49.57771 6025 ft 203 kts 275°
2026-04-28 00:39 -10.12086 -49.59149 6023 ft 204 kts 274°
2026-04-28 00:40 -10.11986 -49.60671 6022 ft 204 kts 274°
2026-04-28 00:40 -10.11890 -49.62121 6019 ft 204 kts 274°
2026-04-28 00:40 -10.11802 -49.63453 6018 ft 204 kts 274°
2026-04-28 00:40 -10.11705 -49.64919 6019 ft 204 kts 274°
2026-04-28 00:41 -10.11608 -49.66402 6017 ft 204 kts 274°
2026-04-28 00:41 -10.11512 -49.67848 6017 ft 204 kts 274°
2026-04-28 00:41 -10.11415 -49.69313 6015 ft 204 kts 274°
2026-04-28 00:41 -10.11319 -49.70758 6011 ft 204 kts 274°
2026-04-28 00:42 -10.11223 -49.72207 6006 ft 204 kts 275°
2026-04-28 00:42 -10.11131 -49.73595 6003 ft 204 kts 275°
2026-04-28 00:42 -10.11034 -49.75053 5998 ft 204 kts 275°
2026-04-28 00:42 -10.10938 -49.76508 5994 ft 204 kts 275°
2026-04-28 00:43 -10.10842 -49.77946 5985 ft 204 kts 275°
2026-04-28 00:43 -10.10746 -49.79391 5988 ft 203 kts 275°
2026-04-28 00:43 -10.10651 -49.80813 5993 ft 203 kts 275°
2026-04-28 00:43 -10.10556 -49.82248 5991 ft 203 kts 275°
2026-04-28 00:44 -10.10459 -49.83688 5988 ft 203 kts 275°
2026-04-28 00:44 -10.10364 -49.85124 5985 ft 203 kts 275°
2026-04-28 00:44 -10.10269 -49.86545 5987 ft 203 kts 275°
2026-04-28 00:44 -10.10173 -49.87989 5985 ft 203 kts 275°
2026-04-28 00:45 -10.10076 -49.89428 5986 ft 203 kts 275°
2026-04-28 00:45 -10.09980 -49.90871 5994 ft 202 kts 274°
2026-04-28 00:45 -10.09885 -49.92290 6003 ft 202 kts 274°
2026-04-28 00:45 -10.09788 -49.93732 5999 ft 203 kts 274°
2026-04-28 00:46 -10.09695 -49.95132 5997 ft 203 kts 275°
2026-04-28 00:46 -10.09599 -49.96565 5999 ft 203 kts 275°
2026-04-28 00:46 -10.09503 -49.97992 6000 ft 203 kts 275°
2026-04-28 00:46 -10.09406 -49.99439 5997 ft 203 kts 275°
2026-04-28 00:47 -10.09310 -50.00867 5994 ft 203 kts 275°
2026-04-28 00:47 -10.09213 -50.02309 5993 ft 203 kts 275°
2026-04-28 00:47 -10.09116 -50.03749 5998 ft 203 kts 275°
2026-04-28 00:47 -10.09020 -50.05182 5999 ft 203 kts 275°
2026-04-28 00:48 -10.08923 -50.06609 5999 ft 203 kts 275°
2026-04-28 00:48 -10.08826 -50.08051 5996 ft 203 kts 274°
2026-04-28 00:48 -10.08729 -50.09496 5992 ft 203 kts 274°
2026-04-28 00:48 -10.08632 -50.10934 6001 ft 203 kts 275°
2026-04-28 00:49 -10.08536 -50.12363 5998 ft 203 kts 275°
2026-04-28 00:49 -10.08438 -50.13807 5996 ft 203 kts 275°
2026-04-28 00:49 -10.08341 -50.15244 5998 ft 203 kts 275°
2026-04-28 00:49 -10.08244 -50.16669 6000 ft 203 kts 275°
2026-04-28 00:50 -10.08147 -50.18102 5999 ft 203 kts 275°
2026-04-28 00:50 -10.08050 -50.19548 5997 ft 203 kts 275°
2026-04-28 00:50 -10.07952 -50.20983 5994 ft 203 kts 275°
2026-04-28 00:50 -10.07856 -50.22392 5993 ft 203 kts 275°
2026-04-28 00:51 -10.07758 -50.23839 5996 ft 202 kts 275°
2026-04-28 00:51 -10.07662 -50.25258 5997 ft 203 kts 275°
2026-04-28 00:51 -10.07563 -50.26711 5997 ft 203 kts 275°
2026-04-28 00:51 -10.07466 -50.28138 5998 ft 203 kts 275°
2026-04-28 00:52 -10.07369 -50.29572 5996 ft 203 kts 275°
2026-04-28 00:52 -10.07271 -50.31007 5997 ft 203 kts 275°
2026-04-28 00:52 -10.07174 -50.32435 5996 ft 203 kts 275°
2026-04-28 00:52 -10.07076 -50.33874 5998 ft 203 kts 275°
2026-04-28 00:53 -10.06977 -50.35316 5998 ft 203 kts 275°
2026-04-28 00:53 -10.06879 -50.36755 6001 ft 203 kts 275°
2026-04-28 00:53 -10.06781 -50.38195 5996 ft 203 kts 275°
2026-04-28 00:53 -10.06683 -50.39625 5997 ft 203 kts 275°
2026-04-28 00:54 -10.06584 -50.41061 5997 ft 202 kts 275°
2026-04-28 00:54 -10.06487 -50.42484 5998 ft 202 kts 275°
2026-04-28 00:54 -10.06388 -50.43931 5998 ft 203 kts 275°
2026-04-28 00:54 -10.06291 -50.45350 5999 ft 203 kts 275°
2026-04-28 00:55 -10.06193 -50.46776 5999 ft 203 kts 275°
2026-04-28 00:55 -10.06094 -50.48217 6000 ft 203 kts 275°
2026-04-28 00:55 -10.05996 -50.49652 5999 ft 203 kts 275°
2026-04-28 00:55 -10.05897 -50.51090 6000 ft 203 kts 275°
2026-04-28 00:56 -10.05798 -50.52533 6004 ft 203 kts 275°
2026-04-28 00:56 -10.05700 -50.53964 6002 ft 203 kts 275°
2026-04-28 00:56 -10.05602 -50.55384 5999 ft 203 kts 275°
2026-04-28 00:56 -10.05504 -50.56807 5997 ft 202 kts 275°
2026-04-28 00:57 -10.05404 -50.58248 5998 ft 202 kts 275°
2026-04-28 00:57 -10.05306 -50.59669 6002 ft 202 kts 275°
2026-04-28 00:57 -10.05208 -50.61098 6005 ft 202 kts 275°
2026-04-28 00:57 -10.05109 -50.62529 6004 ft 203 kts 275°
2026-04-28 00:58 -10.05009 -50.63964 6004 ft 203 kts 275°
2026-04-28 00:58 -10.04910 -50.65398 6006 ft 203 kts 275°
2026-04-28 00:58 -10.04811 -50.66827 6000 ft 203 kts 275°
2026-04-28 00:58 -10.04711 -50.68281 5999 ft 202 kts 275°
2026-04-28 00:59 -10.04612 -50.69717 6003 ft 202 kts 275°
2026-04-28 00:59 -10.04514 -50.71134 6002 ft 202 kts 275°
2026-04-28 00:59 -10.04414 -50.72574 6004 ft 202 kts 275°
2026-04-28 00:59 -10.04316 -50.73986 6006 ft 201 kts 275°
2026-04-28 01:00 -10.04217 -50.75410 6005 ft 201 kts 275°
2026-04-28 01:00 -10.04118 -50.76836 6003 ft 202 kts 275°
2026-04-28 01:00 -10.04019 -50.78260 6006 ft 202 kts 275°
2026-04-28 01:00 -10.03920 -50.79684 6006 ft 202 kts 275°
2026-04-28 01:01 -10.03820 -50.81113 6007 ft 202 kts 275°
2026-04-28 01:01 -10.03722 -50.82523 6004 ft 202 kts 275°
2026-04-28 01:01 -10.03621 -50.83963 6005 ft 202 kts 275°
2026-04-28 01:01 -10.03522 -50.85394 6007 ft 202 kts 275°
2026-04-28 01:02 -10.03423 -50.86816 6007 ft 201 kts 275°
2026-04-28 01:02 -10.03325 -50.88217 6009 ft 202 kts 276°
2026-04-28 01:02 -10.03224 -50.89661 6009 ft 202 kts 276°
2026-04-28 01:02 -10.03125 -50.91077 6010 ft 201 kts 276°
2026-04-28 01:03 -10.03024 -50.92525 6009 ft 201 kts 276°
2026-04-28 01:03 -10.02925 -50.93941 6010 ft 201 kts 276°
2026-04-28 01:03 -10.02824 -50.95373 6010 ft 202 kts 275°
2026-04-28 01:03 -10.02725 -50.96791 6011 ft 202 kts 275°
2026-04-28 01:04 -10.02625 -50.98213 6011 ft 202 kts 275°
2026-04-28 01:04 -10.02528 -50.99588 6014 ft 202 kts 275°
2026-04-28 01:04 -10.02427 -51.01026 6014 ft 202 kts 275°
2026-04-28 01:04 -10.02327 -51.02450 6013 ft 201 kts 275°
2026-04-28 01:05 -10.02228 -51.03870 6016 ft 201 kts 275°
2026-04-28 01:05 -10.02127 -51.05304 6016 ft 201 kts 275°
2026-04-28 01:05 -10.02026 -51.06737 6016 ft 201 kts 275°
2026-04-28 01:05 -10.01927 -51.08147 6023 ft 201 kts 275°
2026-04-28 01:06 -10.01827 -51.09573 6026 ft 201 kts 275°
2026-04-28 01:06 -10.01727 -51.10983 6024 ft 202 kts 275°
2026-04-28 01:06 -10.01671 -51.12407 6025 ft 202 kts 272°
2026-04-28 01:06 -10.01654 -51.13835 6026 ft 202 kts 272°
2026-04-28 01:07 -10.01637 -51.15270 6026 ft 202 kts 271°
2026-04-28 01:07 -10.01619 -51.16708 6030 ft 202 kts 271°
2026-04-28 01:07 -10.01602 -51.18161 6031 ft 202 kts 271°
2026-04-28 01:07 -10.01585 -51.19579 6034 ft 202 kts 271°
2026-04-28 01:08 -10.01568 -51.21007 6041 ft 201 kts 271°
2026-04-28 01:08 -10.01550 -51.22426 6048 ft 201 kts 271°
2026-04-28 01:08 -10.01533 -51.23845 6052 ft 201 kts 271°
2026-04-28 01:08 -10.01516 -51.25275 6056 ft 201 kts 271°
2026-04-28 01:09 -10.01498 -51.26711 6058 ft 201 kts 271°
2026-04-28 01:09 -10.01481 -51.28128 6056 ft 201 kts 272°
2026-04-28 01:09 -10.01463 -51.29569 6053 ft 201 kts 272°
2026-04-28 01:09 -10.01445 -51.31006 6053 ft 202 kts 272°
2026-04-28 01:10 -10.01427 -51.32439 6049 ft 202 kts 271°
2026-04-28 01:10 -10.01409 -51.33872 6047 ft 202 kts 271°
2026-04-28 01:10 -10.01391 -51.35313 6043 ft 203 kts 271°
2026-04-28 01:10 -10.01372 -51.36754 6043 ft 202 kts 271°
2026-04-28 01:11 -10.01354 -51.38186 6045 ft 202 kts 271°
2026-04-28 01:11 -10.01336 -51.39616 6048 ft 202 kts 271°
2026-04-28 01:11 -10.01318 -51.41050 6052 ft 201 kts 271°
2026-04-28 01:11 -10.01300 -51.42467 6051 ft 201 kts 271°
2026-04-28 01:12 -10.01281 -51.43913 6048 ft 202 kts 271°
2026-04-28 01:12 -10.01263 -51.45335 6045 ft 202 kts 271°
2026-04-28 01:12 -10.01244 -51.46777 6041 ft 202 kts 271°
2026-04-28 01:12 -10.01226 -51.48211 6040 ft 202 kts 271°
2026-04-28 01:13 -10.01207 -51.49640 6041 ft 202 kts 271°
2026-04-28 01:13 -10.01170 -51.52496 6041 ft 202 kts 271°
2026-04-28 01:13 -10.01151 -51.53960 6039 ft 202 kts 271°
2026-04-28 01:14 -10.01132 -51.55407 6037 ft 202 kts 271°
2026-04-28 01:14 -10.01113 -51.56825 6035 ft 202 kts 271°
2026-04-28 01:14 -10.01095 -51.58250 6028 ft 202 kts 271°
2026-04-28 01:14 -10.01075 -51.59694 6027 ft 201 kts 271°
2026-04-28 01:15 -10.01056 -51.61116 6028 ft 201 kts 271°
2026-04-28 01:15 -10.01037 -51.62548 6025 ft 201 kts 271°
2026-04-28 01:15 -10.01018 -51.63972 6029 ft 201 kts 271°
2026-04-28 01:15 -10.00999 -51.65390 6028 ft 201 kts 271°
2026-04-28 01:16 -10.00980 -51.66813 6027 ft 201 kts 272°
2026-04-28 01:16 -10.00961 -51.68251 6024 ft 201 kts 272°
2026-04-28 01:16 -10.00941 -51.69670 6023 ft 201 kts 272°
2026-04-28 01:16 -10.00921 -51.71108 6019 ft 201 kts 271°
2026-04-28 01:17 -10.00902 -51.72528 6018 ft 201 kts 271°
2026-04-28 01:17 -10.00882 -51.73949 6019 ft 201 kts 271°
2026-04-28 01:17 -10.00863 -51.75367 6020 ft 201 kts 271°
2026-04-28 01:17 -10.00844 -51.76781 6019 ft 201 kts 271°
2026-04-28 01:18 -10.00824 -51.78212 6014 ft 201 kts 271°
2026-04-28 01:18 -10.00805 -51.79617 6015 ft 201 kts 271°
2026-04-28 01:18 -10.00784 -51.81066 6025 ft 201 kts 271°
2026-04-28 01:18 -10.00765 -51.82484 6026 ft 201 kts 271°
2026-04-28 01:19 -10.00744 -51.83924 6023 ft 202 kts 271°
2026-04-28 01:19 -10.00724 -51.85372 6024 ft 202 kts 271°
2026-04-28 01:19 -10.00704 -51.86804 6010 ft 203 kts 271°
2026-04-28 01:19 -10.00683 -51.88245 6007 ft 202 kts 271°
2026-04-28 01:20 -10.00662 -51.89697 6009 ft 202 kts 271°
2026-04-28 01:20 -10.00642 -51.91146 6009 ft 202 kts 271°
2026-04-28 01:20 -10.00621 -51.92573 6001 ft 201 kts 271°
2026-04-28 01:20 -10.00601 -51.94008 6003 ft 201 kts 271°
2026-04-28 01:21 -10.00581 -51.95440 6008 ft 200 kts 271°
2026-04-28 01:21 -10.00560 -51.96868 6010 ft 199 kts 271°
2026-04-28 01:21 -10.00540 -51.98262 6022 ft 199 kts 271°
2026-04-28 01:21 -10.00520 -51.99689 6026 ft 200 kts 271°
2026-04-28 01:22 -10.00499 -52.01099 6020 ft 200 kts 271°
2026-04-28 01:22 -10.00478 -52.02517 6016 ft 200 kts 271°
2026-04-28 01:22 -10.00457 -52.03938 6022 ft 200 kts 271°
2026-04-28 01:22 -10.00436 -52.05367 6022 ft 201 kts 271°
2026-04-28 01:23 -10.00415 -52.06792 6019 ft 201 kts 271°
2026-04-28 01:23 -10.00394 -52.08226 6019 ft 201 kts 271°
2026-04-28 01:23 -10.00373 -52.09663 6019 ft 201 kts 271°
2026-04-28 01:23 -10.00352 -52.11103 6017 ft 201 kts 271°
2026-04-28 01:24 -10.00331 -52.12534 6019 ft 201 kts 271°
2026-04-28 01:24 -10.00310 -52.13946 6019 ft 201 kts 271°
2026-04-28 01:24 -10.00288 -52.15374 6030 ft 201 kts 271°
2026-04-28 01:24 -10.00267 -52.16803 6026 ft 202 kts 271°
2026-04-28 01:25 -10.00245 -52.18253 6020 ft 203 kts 271°
2026-04-28 01:25 -10.00223 -52.19684 6016 ft 203 kts 272°
2026-04-28 01:25 -10.00201 -52.21136 6012 ft 203 kts 271°
2026-04-28 01:25 -10.00179 -52.22574 6012 ft 203 kts 271°
2026-04-28 01:26 -10.00158 -52.23996 6001 ft 203 kts 271°
2026-04-28 01:26 -10.00136 -52.25440 6002 ft 202 kts 271°
2026-04-28 01:26 -10.00114 -52.26855 6005 ft 202 kts 271°
2026-04-28 01:26 -10.00092 -52.28292 6013 ft 201 kts 271°
2026-04-28 01:27 -10.00070 -52.29724 6007 ft 201 kts 271°
2026-04-28 01:27 -10.00048 -52.31146 6011 ft 201 kts 271°
2026-04-28 01:27 -10.00026 -52.32574 6012 ft 201 kts 271°
2026-04-28 01:27 -10.00004 -52.34002 6011 ft 201 kts 271°
2026-04-28 01:28 -9.99982 -52.35425 6010 ft 201 kts 271°
2026-04-28 01:28 -9.99961 -52.36836 6013 ft 201 kts 272°
2026-04-28 01:28 -9.99938 -52.38260 6023 ft 201 kts 272°
2026-04-28 01:28 -9.99916 -52.39645 6026 ft 201 kts 272°
2026-04-28 01:29 -9.99894 -52.41059 6024 ft 202 kts 272°
2026-04-28 01:29 -9.99871 -52.42486 6024 ft 202 kts 272°
2026-04-28 01:29 -9.99848 -52.43954 6022 ft 202 kts 272°
2026-04-28 01:29 -9.99826 -52.45380 6023 ft 202 kts 272°
2026-04-28 01:30 -9.99803 -52.46807 6025 ft 202 kts 272°
2026-04-28 01:30 -9.99779 -52.48254 6026 ft 202 kts 271°
2026-04-28 01:30 -9.99757 -52.49675 6025 ft 203 kts 271°
2026-04-28 01:30 -9.99734 -52.51121 6025 ft 203 kts 271°
2026-04-28 01:31 -9.99711 -52.52558 6024 ft 203 kts 272°
2026-04-28 01:31 -9.99688 -52.53985 6025 ft 203 kts 272°
2026-04-28 01:31 -9.99665 -52.55423 6026 ft 203 kts 272°
2026-04-28 01:31 -9.99641 -52.56864 6028 ft 203 kts 272°
2026-04-28 01:32 -9.99618 -52.58320 6028 ft 203 kts 272°
2026-04-28 01:32 -9.99594 -52.59753 6026 ft 203 kts 272°
2026-04-28 01:32 -9.99571 -52.61197 6020 ft 203 kts 272°
2026-04-28 01:32 -9.99547 -52.62624 6024 ft 203 kts 272°
2026-04-28 01:33 -9.99523 -52.64071 6025 ft 203 kts 271°
2026-04-28 01:33 -9.99500 -52.65491 6026 ft 203 kts 272°
2026-04-28 01:33 -9.99476 -52.66933 6025 ft 202 kts 272°
2026-04-28 01:33 -9.99452 -52.68368 6027 ft 203 kts 272°
2026-04-28 01:34 -9.99428 -52.69817 6019 ft 203 kts 271°
2026-04-28 01:34 -9.99405 -52.71261 6007 ft 203 kts 271°
2026-04-28 01:34 -9.99381 -52.72693 6008 ft 203 kts 272°
2026-04-28 01:34 -9.99357 -52.74135 6014 ft 202 kts 272°
2026-04-28 01:35 -9.99333 -52.75588 6012 ft 202 kts 272°
2026-04-28 01:35 -9.99309 -52.77015 6013 ft 202 kts 272°
2026-04-28 01:35 -9.99285 -52.78448 6014 ft 202 kts 272°
2026-04-28 01:35 -9.99261 -52.79886 6013 ft 202 kts 272°
2026-04-28 01:36 -9.99236 -52.81299 6016 ft 202 kts 272°
2026-04-28 01:36 -9.99212 -52.82746 6020 ft 202 kts 272°
2026-04-28 01:36 -9.99187 -52.84188 6022 ft 202 kts 272°
2026-04-28 01:36 -9.99163 -52.85611 6018 ft 203 kts 272°
2026-04-28 01:37 -9.99138 -52.87059 6017 ft 203 kts 272°
2026-04-28 01:37 -9.99114 -52.88485 6015 ft 203 kts 272°
2026-04-28 01:37 -9.99089 -52.89909 6018 ft 203 kts 272°
2026-04-28 01:37 -9.99065 -52.91358 6013 ft 203 kts 272°
2026-04-28 01:38 -9.99040 -52.92781 6013 ft 203 kts 272°
2026-04-28 01:38 -9.99015 -52.94223 6014 ft 203 kts 272°
2026-04-28 01:38 -9.98990 -52.95650 6010 ft 203 kts 272°
2026-04-28 01:38 -9.98965 -52.97087 6006 ft 203 kts 272°
2026-04-28 01:39 -9.98940 -52.98529 6006 ft 203 kts 272°
2026-04-28 01:39 -9.98915 -52.99967 6005 ft 203 kts 272°
2026-04-28 01:39 -9.98889 -53.01413 6011 ft 203 kts 272°
2026-04-28 01:39 -9.98864 -53.02842 6012 ft 204 kts 272°
2026-04-28 01:40 -9.98839 -53.04283 6011 ft 204 kts 272°
2026-04-28 01:40 -9.98813 -53.05732 6013 ft 204 kts 272°
2026-04-28 01:40 -9.98788 -53.07188 6016 ft 204 kts 272°
2026-04-28 01:40 -9.98762 -53.08641 6016 ft 204 kts 272°
2026-04-28 01:41 -9.98736 -53.10090 6018 ft 203 kts 272°
2026-04-28 01:41 -9.98710 -53.11523 6017 ft 203 kts 272°
2026-04-28 01:41 -9.98685 -53.12961 6019 ft 203 kts 272°
2026-04-28 01:41 -9.98659 -53.14419 6020 ft 203 kts 272°
2026-04-28 01:42 -9.98633 -53.15855 6020 ft 204 kts 272°
2026-04-28 01:42 -9.98607 -53.17285 6021 ft 204 kts 272°
2026-04-28 01:42 -9.98581 -53.18732 6024 ft 204 kts 272°
2026-04-28 01:42 -9.98555 -53.20193 6023 ft 204 kts 272°
2026-04-28 01:43 -9.98529 -53.21616 6025 ft 205 kts 272°
2026-04-28 01:43 -9.98502 -53.23089 6025 ft 205 kts 272°
2026-04-28 01:43 -9.98476 -53.24544 6028 ft 205 kts 272°
2026-04-28 01:43 -9.98449 -53.26001 6026 ft 205 kts 272°
2026-04-28 01:44 -9.98422 -53.27459 6004 ft 206 kts 272°
2026-04-28 01:44 -9.98395 -53.28908 6023 ft 204 kts 272°
2026-04-28 01:44 -9.98369 -53.30348 6035 ft 204 kts 272°
2026-04-28 01:44 -9.98343 -53.31787 6032 ft 204 kts 272°
2026-04-28 01:45 -9.98316 -53.33243 6030 ft 204 kts 272°
2026-04-28 01:45 -9.98289 -53.34690 6031 ft 204 kts 272°
2026-04-28 01:45 -9.98262 -53.36147 6033 ft 204 kts 272°
2026-04-28 01:45 -9.98236 -53.37582 6032 ft 204 kts 272°
2026-04-28 01:46 -9.98208 -53.39032 6034 ft 205 kts 272°
2026-04-28 01:46 -9.98181 -53.40483 6034 ft 205 kts 272°
2026-04-28 01:46 -9.98154 -53.41914 6037 ft 205 kts 272°
2026-04-28 01:46 -9.98129 -53.43276 6037 ft 206 kts 272°
2026-04-28 01:47 -9.98101 -53.44736 6039 ft 205 kts 272°
2026-04-28 01:47 -9.98073 -53.46191 6038 ft 205 kts 272°
2026-04-28 01:47 -9.98046 -53.47646 6038 ft 205 kts 272°
2026-04-28 01:47 -9.98019 -53.49104 6040 ft 205 kts 272°
2026-04-28 01:48 -9.97991 -53.50553 6039 ft 205 kts 272°
2026-04-28 01:48 -9.97964 -53.52001 6039 ft 205 kts 272°
2026-04-28 01:48 -9.97936 -53.53457 6039 ft 205 kts 272°
2026-04-28 01:48 -9.97908 -53.54903 6039 ft 205 kts 272°
2026-04-28 01:49 -9.97880 -53.56364 6039 ft 206 kts 272°
2026-04-28 01:49 -9.97852 -53.57814 6039 ft 206 kts 272°
2026-04-28 01:49 -9.97824 -53.59282 6040 ft 206 kts 272°
2026-04-28 01:49 -9.97796 -53.60742 6041 ft 206 kts 272°
2026-04-28 01:50 -9.97767 -53.62214 6040 ft 207 kts 272°
2026-04-28 01:50 -9.97739 -53.63668 6039 ft 207 kts 272°
2026-04-28 01:50 -9.97711 -53.65141 6040 ft 207 kts 272°
2026-04-28 01:50 -9.97682 -53.66592 6037 ft 207 kts 272°
2026-04-28 01:51 -9.97654 -53.68061 6036 ft 206 kts 272°
2026-04-28 01:51 -9.97626 -53.69507 6034 ft 206 kts 272°
2026-04-28 01:51 -9.97599 -53.70842 6036 ft 205 kts 272°
2026-04-28 01:51 -9.97571 -53.72298 6036 ft 205 kts 272°
2026-04-28 01:52 -9.97542 -53.73758 6035 ft 205 kts 272°
2026-04-28 01:52 -9.97514 -53.75197 6035 ft 205 kts 272°
2026-04-28 01:52 -9.97486 -53.76601 6036 ft 205 kts 272°
2026-04-28 01:52 -9.97457 -53.78042 6035 ft 205 kts 272°
2026-04-28 01:53 -9.97429 -53.79496 6035 ft 206 kts 272°
2026-04-28 01:53 -9.97400 -53.80950 6035 ft 206 kts 272°
2026-04-28 01:53 -9.97371 -53.82408 6036 ft 206 kts 272°
2026-04-28 01:53 -9.97341 -53.83880 6037 ft 206 kts 272°
2026-04-28 01:54 -9.97312 -53.85359 6035 ft 206 kts 272°
2026-04-28 01:54 -9.97282 -53.86810 6035 ft 206 kts 272°
2026-04-28 01:54 -9.97253 -53.88277 6036 ft 206 kts 272°
2026-04-28 01:54 -9.97224 -53.89734 6041 ft 206 kts 272°
2026-04-28 01:55 -9.97195 -53.91167 6047 ft 205 kts 272°
2026-04-28 01:55 -9.97165 -53.92635 6051 ft 205 kts 272°
2026-04-28 01:55 -9.97136 -53.94094 6052 ft 206 kts 273°
2026-04-28 01:55 -9.97107 -53.95541 6052 ft 206 kts 273°
2026-04-28 01:56 -9.97077 -53.97001 6052 ft 206 kts 273°